| time (UTC) | temp F | wind direction | speed MPH | gust MPH | rain 1hr in | rain 24hr in | rain mn in | humidity % | barometer mb |
| 20260903200359 | 93 | 233 | 0.0 | 0.0 | 0.00 | 0.00 | 0.00 | 59 | 1017.7 |
| 20260903195854 | 93 | 221 | 0.0 | 0.0 | 0.00 | 0.00 | 0.00 | 58 | 1017.8 |
| 20260903195350 | 94 | 236 | 0.0 | 0.0 | 0.00 | 0.00 | 0.00 | 60 | 1018.0 |
| 20260903194844 | 95 | 251 | 0.0 | 0.0 | 0.00 | 0.00 | 0.00 | 59 | 1017.8 |
| 20260903194340 | 95 | 258 | 0.0 | 0.0 | 0.00 | 0.00 | 0.00 | 58 | 1018.0 |
| 20260903193836 | 93 | 274 | 0.0 | 0.0 | 0.00 | 0.00 | 0.00 | 56 | 1018.3 |
| 20260903193332 | 93 | 326 | 0.0 | 0.0 | 0.00 | 0.00 | 0.00 | 58 | 1018.3 |
| 20260903192827 | 94 | 6 | 0.0 | 0.0 | 0.00 | 0.00 | 0.00 | 58 | 1018.2 |
| 20260903192322 | 93 | 55 | 0.0 | 0.0 | 0.00 | 0.00 | 0.00 | 61 | 1018.2 |
| 20260903191818 | 94 | 39 | 0.0 | 0.0 | 0.00 | 0.00 | 0.00 | 56 | 1018.4 |
| 20260903191314 | 95 | 277 | 0.0 | 0.0 | 0.00 | 0.00 | 0.00 | 55 | 1018.5 |
| 20260903190808 | 95 | 162 | 0.0 | 0.0 | 0.00 | 0.00 | 0.00 | 56 | 1018.4 |
| 20260903190302 | 95 | 269 | 0.0 | 0.0 | 0.00 | 0.00 | 0.00 | 56 | 1018.4 |
| 20260903185756 | 95 | 312 | 0.0 | 0.0 | 0.00 | 0.00 | 0.00 | 55 | 1018.4 |
| 20260903185251 | 95 | 248 | 0.0 | 0.0 | 0.00 | 0.00 | 0.00 | 54 | 1018.6 |
| 20260903184748 | 96 | 219 | 0.0 | 0.0 | 0.00 | 0.00 | 0.00 | 53 | 1018.8 |
| 20260903184243 | 96 | 278 | 0.0 | 0.0 | 0.00 | 0.00 | 0.00 | 52 | 1018.6 |
| 20260903183738 | 96 | 229 | 0.0 | 0.0 | 0.00 | 0.00 | 0.00 | 53 | 1018.8 |
| 20260903183233 | 95 | 268 | 0.0 | 0.0 | 0.00 | 0.00 | 0.00 | 54 | 1018.8 |
| 20260903182732 | 95 | 221 | 0.0 | 0.0 | 0.00 | 0.00 | 0.00 | 55 | 1018.7 |
| 20260903182227 | 95 | 309 | 0.0 | 0.0 | 0.00 | 0.00 | 0.00 | 53 | 1018.9 |
| 20260903181726 | 95 | 254 | 0.0 | 0.0 | 0.00 | 0.00 | 0.00 | 52 | 1018.8 |
| 20260903181221 | 95 | 280 | 0.0 | 0.0 | 0.00 | 0.00 | 0.00 | 57 | 1018.8 |
| 20260903180716 | 95 | 351 | 0.0 | 0.0 | 0.00 | 0.00 | 0.00 | 55 | 1019.0 |
| 20260903180210 | 95 | 333 | 0.0 | 0.0 | 0.00 | 0.00 | 0.00 | 54 | 1019.0 |
| 20260903175709 | 95 | 285 | 0.0 | 0.0 | 0.00 | 0.00 | 0.00 | 54 | 1019.0 |
| 20260903175208 | 95 | 280 | 0.0 | 0.0 | 0.00 | 0.00 | 0.00 | 55 | 1019.4 |
| 20260903174703 | 95 | 272 | 0.0 | 0.0 | 0.00 | 0.00 | 0.00 | 55 | 1019.0 |
| 20260903174157 | 95 | 279 | 0.0 | 0.0 | 0.00 | 0.00 | 0.00 | 54 | 1019.3 |
| 20260903173652 | 94 | 277 | 0.0 | 0.0 | 0.00 | 0.00 | 0.00 | 60 | 1019.3 |
| 20260903173149 | 93 | 278 | 0.0 | 0.0 | 0.00 | 0.00 | 0.00 | 60 | 1019.4 |
| 20260903172643 | 94 | 289 | 0.0 | 0.0 | 0.00 | 0.00 | 0.00 | 62 | 1019.4 |
| 20260903172139 | 93 | 248 | 0.0 | 0.0 | 0.00 | 0.00 | 0.00 | 62 | 1019.6 |
| 20260903171638 | 93 | 224 | 0.0 | 0.0 | 0.00 | 0.00 | 0.00 | 64 | 1019.7 |
| 20260903171135 | 92 | 246 | 0.0 | 0.0 | 0.00 | 0.00 | 0.00 | 67 | 1019.6 |
| 20260903170633 | 92 | 227 | 0.0 | 0.0 | 0.00 | 0.00 | 0.00 | 67 | 1019.9 |
| 20260903170129 | 92 | 177 | 0.0 | 0.0 | 0.00 | 0.00 | 0.00 | 66 | 1020.2 |
| 20260903165627 | 92 | 226 | 0.0 | 0.0 | 0.00 | 0.00 | 0.00 | 66 | 1020.0 |
| 20260903165121 | 92 | 213 | 0.0 | 0.0 | 0.00 | 0.00 | 0.00 | 66 | 1020.1 |
| 20260903164611 | 92 | 236 | 0.0 | 0.0 | 0.00 | 0.00 | 0.00 | 63 | 1020.4 |
| 20260903164106 | 92 | 228 | 0.0 | 0.0 | 0.00 | 0.00 | 0.00 | 63 | 1019.9 |
| 20260903163600 | 92 | 244 | 0.0 | 0.0 | 0.00 | 0.00 | 0.00 | 63 | 1020.3 |
| 20260903163056 | 92 | 251 | 0.0 | 0.0 | 0.00 | 0.00 | 0.00 | 62 | 1020.1 |
| 20260903162553 | 92 | 251 | 0.0 | 0.0 | 0.00 | 0.00 | 0.00 | 61 | 1020.3 |
| 20260903162048 | 91 | 284 | 0.0 | 0.0 | 0.00 | 0.00 | 0.00 | 60 | 1020.4 |
| 20260903161543 | 92 | 290 | 0.0 | 0.0 | 0.00 | 0.00 | 0.00 | 62 | 1020.5 |
| 20260903161034 | 90 | 283 | 0.0 | 0.0 | 0.00 | 0.00 | 0.00 | 66 | 1020.6 |
| 20260903160533 | 89 | 287 | 0.0 | 0.0 | 0.00 | 0.00 | 0.00 | 65 | 1020.4 |
| 20260903160028 | 89 | 283 | 0.0 | 0.0 | 0.00 | 0.00 | 0.00 | 66 | 1020.4 |
| 20260903155526 | 88 | 298 | 0.0 | 0.0 | 0.00 | 0.00 | 0.00 | 67 | 1020.3 |
| 20260903155022 | 88 | 337 | 0.0 | 0.0 | 0.00 | 0.00 | 0.00 | 68 | 1020.4 |
| 20260903154518 | 88 | 346 | 0.0 | 0.0 | 0.00 | 0.00 | 0.00 | 73 | 1020.3 |
| 20260903154014 | 87 | 291 | 0.0 | 0.0 | 0.00 | 0.00 | 0.00 | 76 | 1020.5 |
| 20260903153509 | 87 | 293 | 0.0 | 0.0 | 0.00 | 0.00 | 0.00 | 79 | 1020.4 |
| 20260903153005 | 86 | 288 | 0.0 | 0.0 | 0.00 | 0.00 | 0.00 | 80 | 1020.5 |
| 20260903152501 | 86 | 9 | 0.0 | 0.0 | 0.00 | 0.00 | 0.00 | 81 | 1020.3 |
| 20260903151957 | 85 | 296 | 0.0 | 0.0 | 0.00 | 0.00 | 0.00 | 81 | 1020.6 |
| 20260903151456 | 84 | 289 | 0.0 | 0.0 | 0.00 | 0.00 | 0.00 | 82 | 1020.4 |
| 20260903150951 | 84 | 307 | 0.0 | 0.0 | 0.00 | 0.00 | 0.00 | 83 | 1020.4 |
| 20260903150451 | 84 | 325 | 0.0 | 0.0 | 0.00 | 0.00 | 0.00 | 83 | 1020.3 |
| 20260903145945 | 84 | 321 | 0.0 | 0.0 | 0.00 | 0.00 | 0.00 | 83 | 1020.4 |
| 20260903145441 | 84 | 316 | 0.0 | 0.0 | 0.00 | 0.00 | 0.00 | 84 | 1020.3 |
| 20260903144936 | 83 | 33 | 0.0 | 0.0 | 0.00 | 0.00 | 0.00 | 84 | 1020.3 |
| 20260903144435 | 83 | 321 | 0.0 | 0.0 | 0.00 | 0.00 | 0.00 | 84 | 1020.2 |
| 20260903143931 | 83 | 321 | 0.0 | 0.0 | 0.00 | 0.00 | 0.00 | 85 | 1020.4 |
| 20260903143427 | 83 | 6 | 0.0 | 0.0 | 0.00 | 0.00 | 0.00 | 85 | 1020.2 |
| 20260903142923 | 82 | 6 | 0.0 | 0.0 | 0.00 | 0.00 | 0.00 | 86 | 1020.4 |
| 20260903142418 | 83 | 12 | 0.0 | 0.0 | 0.00 | 0.00 | 0.00 | 87 | 1020.4 |
| 20260903141914 | 82 | 2 | 0.0 | 0.0 | 0.00 | 0.00 | 0.00 | 87 | 1020.3 |
| 20260903141410 | 82 | 20 | 0.0 | 0.0 | 0.00 | 0.00 | 0.00 | 89 | 1020.4 |
| 20260903140905 | 82 | 29 | 0.0 | 0.0 | 0.00 | 0.00 | 0.00 | 89 | 1020.3 |
| 20260903140355 | 82 | 60 | 0.0 | 0.0 | 0.00 | 0.00 | 0.00 | 90 | 1020.3 |
| 20260903135850 | 81 | 62 | 0.0 | 0.0 | 0.00 | 0.00 | 0.00 | 90 | 1020.4 |
| 20260903135345 | 81 | 329 | 0.0 | 0.0 | 0.00 | 0.00 | 0.00 | 92 | 1020.3 |
| 20260903134844 | 81 | 7 | 0.0 | 0.0 | 0.00 | 0.00 | 0.00 | 92 | 1020.4 |
| 20260903134339 | 81 | 354 | 0.0 | 0.0 | 0.00 | 0.00 | 0.00 | 92 | 1020.4 |
| 20260903133837 | 81 | 25 | 0.0 | 0.0 | 0.00 | 0.00 | 0.00 | 93 | 1020.4 |
| 20260903133334 | 81 | 8 | 0.0 | 0.0 | 0.00 | 0.00 | 0.00 | 93 | 1020.5 |
| 20260903132828 | 80 | 13 | 0.0 | 0.0 | 0.00 | 0.00 | 0.00 | 93 | 1020.3 |
| 20260903132324 | 80 | 0 | 0.0 | 0.0 | 0.00 | 0.00 | 0.00 | 93 | 1020.4 |
| 20260903131819 | 80 | 335 | 0.0 | 0.0 | 0.00 | 0.00 | 0.00 | 93 | 1020.2 |
| 20260903131319 | 80 | 2 | 0.0 | 0.0 | 0.00 | 0.00 | 0.00 | 93 | 1020.5 |
| 20260903130813 | 80 | 6 | 0.0 | 0.0 | 0.00 | 0.00 | 0.00 | 93 | 1020.2 |
| 20260903130313 | 80 | 341 | 0.0 | 0.0 | 0.00 | 0.00 | 0.00 | 94 | 1020.2 |
| 20260903125811 | 80 | 26 | 0.0 | 0.0 | 0.00 | 0.00 | 0.00 | 93 | 1020.2 |
| 20260903125307 | 80 | 0 | 0.0 | 0.0 | 0.00 | 0.00 | 0.00 | 93 | 1020.4 |
| 20260903124806 | 80 | 348 | 0.0 | 0.0 | 0.00 | 0.00 | 0.00 | 93 | 1020.2 |
| 20260903124302 | 80 | 344 | 0.0 | 0.0 | 0.00 | 0.00 | 0.00 | 95 | 1020.2 |
| 20260903123800 | 80 | 10 | 0.0 | 0.0 | 0.00 | 0.00 | 0.00 | 95 | 1020.2 |
| 20260903123300 | 80 | 1 | 0.0 | 0.0 | 0.00 | 0.00 | 0.00 | 95 | 1020.5 |
| 20260903122758 | 79 | 341 | 0.0 | 0.0 | 0.00 | 0.00 | 0.00 | 95 | 1020.4 |
| 20260903122253 | 79 | 331 | 0.0 | 0.0 | 0.00 | 0.00 | 0.00 | 96 | 1020.3 |
| 20260903121751 | 79 | 348 | 0.0 | 0.0 | 0.00 | 0.00 | 0.00 | 97 | 1020.2 |
| 20260903121247 | 78 | 282 | 0.0 | 0.0 | 0.00 | 0.00 | 0.00 | 97 | 1020.2 |
| 20260903120742 | 78 | 273 | 0.0 | 0.0 | 0.00 | 0.00 | 0.00 | 98 | 1020.2 |
| 20260903120236 | 77 | 278 | 0.0 | 0.0 | 0.00 | 0.00 | 0.00 | 98 | 1020.2 |
| 20260903115734 | 77 | 278 | 0.0 | 0.0 | 0.00 | 0.00 | 0.00 | 98 | 1020.2 |
| 20260903115230 | 77 | 283 | 0.0 | 0.0 | 0.00 | 0.00 | 0.00 | 99 | 1020.3 |
| 20260903114725 | 77 | 285 | 0.0 | 0.0 | 0.00 | 0.00 | 0.00 | 99 | 1020.2 |
| 20260903114220 | 77 | 302 | 0.0 | 0.0 | 0.00 | 0.00 | 0.00 | 99 | 1020.0 |
| 20260903113715 | 77 | 277 | 0.0 | 0.0 | 0.00 | 0.00 | 0.00 | 99 | 1020.0 |
| 20260903113211 | 76 | 189 | 0.0 | 0.0 | 0.00 | 0.00 | 0.00 | 99 | 1019.9 |
| 20260903112707 | 76 | 189 | 0.0 | 0.0 | 0.00 | 0.00 | 0.00 | 99 | 1019.9 |
| 20260903112203 | 76 | 190 | 0.0 | 0.0 | 0.00 | 0.00 | 0.00 | 99 | 1019.8 |
| 20260903111701 | 76 | 189 | 0.0 | 0.0 | 0.00 | 0.00 | 0.00 | 99 | 1019.8 |
| 20260903111157 | 76 | 189 | 0.0 | 0.0 | 0.00 | 0.00 | 0.00 | 99 | 1019.9 |
| 20260903110653 | 76 | 189 | 0.0 | 0.0 | 0.00 | 0.00 | 0.00 | 99 | 1019.9 |
| 20260903110148 | 76 | 189 | 0.0 | 0.0 | 0.00 | 0.00 | 0.00 | 99 | 1019.6 |
| 20260903105642 | 76 | 190 | 0.0 | 0.0 | 0.00 | 0.00 | 0.00 | 99 | 1019.6 |
| 20260903105137 | 76 | 191 | 0.0 | 0.0 | 0.00 | 0.00 | 0.00 | 99 | 1019.7 |
| 20260903104637 | 76 | 190 | 0.0 | 0.0 | 0.00 | 0.00 | 0.00 | 99 | 1019.7 |
| 20260903104133 | 77 | 190 | 0.0 | 0.0 | 0.00 | 0.00 | 0.00 | 99 | 1019.6 |
| 20260903103628 | 77 | 189 | 0.0 | 0.0 | 0.00 | 0.00 | 0.00 | 99 | 1019.7 |
| 20260903103125 | 77 | 189 | 0.0 | 0.0 | 0.00 | 0.00 | 0.00 | 99 | 1019.6 |
| 20260903102620 | 77 | 189 | 0.0 | 0.0 | 0.00 | 0.00 | 0.00 | 99 | 1019.5 |
| 20260903102118 | 77 | 190 | 0.0 | 0.0 | 0.00 | 0.00 | 0.00 | 99 | 1019.5 |
| 20260903101613 | 77 | 191 | 0.0 | 0.0 | 0.00 | 0.00 | 0.00 | 99 | 1019.4 |
| 20260903101108 | 77 | 189 | 0.0 | 0.0 | 0.00 | 0.00 | 0.00 | 99 | 1019.3 |
| 20260903100603 | 77 | 190 | 0.0 | 0.0 | 0.00 | 0.00 | 0.00 | 99 | 1019.3 |
| 20260903095600 | 77 | 188 | 0.0 | 0.0 | 0.00 | 0.00 | 0.00 | 99 | 1019.3 |
| 20260903095055 | 77 | 190 | 0.0 | 0.0 | 0.00 | 0.00 | 0.00 | 99 | 1019.4 |
| 20260903094554 | 77 | 189 | 0.0 | 0.0 | 0.00 | 0.00 | 0.00 | 99 | 1019.4 |
| 20260903094045 | 77 | 189 | 0.0 | 0.0 | 0.00 | 0.00 | 0.00 | 99 | 1019.4 |
| 20260903093545 | 77 | 191 | 0.0 | 0.0 | 0.00 | 0.00 | 0.00 | 99 | 1019.4 |
| 20260903093040 | 77 | 190 | 0.0 | 0.0 | 0.00 | 0.00 | 0.00 | 99 | 1019.3 |
| 20260903092539 | 77 | 190 | 0.0 | 0.0 | 0.00 | 0.00 | 0.00 | 99 | 1019.5 |
| 20260903092034 | 77 | 188 | 0.0 | 0.0 | 0.00 | 0.00 | 0.00 | 99 | 1019.4 |
| 20260903091532 | 77 | 190 | 0.0 | 0.0 | 0.00 | 0.00 | 0.00 | 99 | 1019.3 |
| 20260903091027 | 77 | 187 | 0.0 | 0.0 | 0.00 | 0.00 | 0.00 | 99 | 1019.3 |
| 20260903090523 | 77 | 189 | 0.0 | 0.0 | 0.00 | 0.00 | 0.00 | 99 | 1019.3 |
| 20260903090021 | 76 | 216 | 0.0 | 0.0 | 0.00 | 0.00 | 0.00 | 99 | 1019.4 |
| 20260903085520 | 76 | 246 | 0.0 | 0.0 | 0.00 | 0.00 | 0.00 | 99 | 1019.2 |
| 20260903085015 | 76 | 235 | 0.0 | 0.0 | 0.00 | 0.00 | 0.00 | 99 | 1019.4 |
| 20260903084514 | 76 | 231 | 0.0 | 0.0 | 0.00 | 0.00 | 0.00 | 99 | 1019.3 |
| 20260903084008 | 76 | 230 | 0.0 | 0.0 | 0.00 | 0.00 | 0.00 | 99 | 1019.4 |
| 20260903083504 | 76 | 230 | 0.0 | 0.0 | 0.00 | 0.00 | 0.00 | 99 | 1019.3 |
| 20260903082959 | 76 | 233 | 0.0 | 0.0 | 0.00 | 0.00 | 0.00 | 99 | 1019.2 |
| 20260903082453 | 76 | 233 | 0.0 | 0.0 | 0.00 | 0.00 | 0.00 | 99 | 1019.2 |
| 20260903081948 | 76 | 233 | 0.0 | 0.0 | 0.00 | 0.00 | 0.00 | 99 | 1019.2 |
| 20260903081444 | 76 | 232 | 0.0 | 0.0 | 0.00 | 0.00 | 0.00 | 99 | 1019.1 |
| 20260903080940 | 76 | 233 | 0.0 | 0.0 | 0.00 | 0.00 | 0.00 | 99 | 1019.2 |
| 20260903080435 | 76 | 230 | 0.0 | 0.0 | 0.00 | 0.00 | 0.00 | 99 | 1019.0 |
| 20260903075930 | 76 | 230 | 0.0 | 0.0 | 0.00 | 0.00 | 0.00 | 99 | 1019.2 |
| 20260903075426 | 76 | 230 | 0.0 | 0.0 | 0.00 | 0.00 | 0.00 | 99 | 1019.0 |
| 20260903074921 | 76 | 233 | 0.0 | 0.0 | 0.00 | 0.00 | 0.00 | 99 | 1019.4 |
| 20260903074420 | 77 | 233 | 0.0 | 0.0 | 0.00 | 0.00 | 0.00 | 99 | 1019.2 |
| 20260903073916 | 77 | 234 | 0.0 | 0.0 | 0.00 | 0.00 | 0.00 | 99 | 1019.2 |
| 20260903073411 | 76 | 235 | 0.0 | 0.0 | 0.00 | 0.00 | 0.00 | 98 | 1019.1 |
| 20260903072907 | 76 | 239 | 0.0 | 0.0 | 0.00 | 0.00 | 0.00 | 98 | 1019.2 |
| 20260903072403 | 76 | 243 | 0.0 | 0.0 | 0.00 | 0.00 | 0.00 | 98 | 1018.9 |
| 20260903071900 | 76 | 245 | 0.0 | 0.0 | 0.00 | 0.00 | 0.00 | 98 | 1019.2 |
| 20260903071355 | 76 | 243 | 0.0 | 0.0 | 0.00 | 0.00 | 0.00 | 98 | 1019.3 |
| 20260903070850 | 76 | 243 | 0.0 | 0.0 | 0.00 | 0.00 | 0.00 | 98 | 1019.0 |
| 20260903070345 | 76 | 243 | 0.0 | 0.0 | 0.00 | 0.00 | 0.00 | 98 | 1019.1 |
| 20260903065839 | 76 | 244 | 0.0 | 0.0 | 0.00 | 0.00 | 0.00 | 98 | 1019.0 |
| 20260903065339 | 76 | 242 | 0.0 | 0.0 | 0.00 | 0.00 | 0.00 | 98 | 1019.1 |
| 20260903064833 | 76 | 245 | 0.0 | 0.0 | 0.00 | 0.00 | 0.00 | 98 | 1019.0 |
| 20260903064329 | 76 | 244 | 0.0 | 0.0 | 0.00 | 0.00 | 0.00 | 98 | 1019.3 |
| 20260903063824 | 76 | 243 | 0.0 | 0.0 | 0.00 | 0.00 | 0.00 | 98 | 1019.1 |
| 20260903063318 | 76 | 243 | 0.0 | 0.0 | 0.00 | 0.00 | 0.00 | 97 | 1019.2 |
| 20260903062814 | 76 | 243 | 0.0 | 0.0 | 0.00 | 0.00 | 0.00 | 97 | 1019.4 |
| 20260903062314 | 76 | 243 | 0.0 | 0.0 | 0.00 | 0.00 | 0.00 | 97 | 1019.2 |
| 20260903061810 | 76 | 243 | 0.0 | 0.0 | 0.00 | 0.00 | 0.00 | 97 | 1019.5 |
| 20260903061303 | 76 | 243 | 0.0 | 0.0 | 0.00 | 0.00 | 0.00 | 97 | 1019.4 |
| 20260903060754 | 76 | 243 | 0.0 | 0.0 | 0.00 | 0.00 | 0.00 | 97 | 1019.2 |
| 20260903060254 | 76 | 243 | 0.0 | 0.0 | 0.00 | 0.00 | 0.00 | 97 | 1019.3 |
| 20260903055751 | 76 | 243 | 0.0 | 0.0 | 0.00 | 0.00 | 0.00 | 97 | 1019.3 |
| 20260903055249 | 76 | 243 | 0.0 | 0.0 | 0.00 | 0.00 | 0.00 | 97 | 1019.2 |
| 20260903054745 | 76 | 243 | 0.0 | 0.0 | 0.00 | 0.00 | 0.00 | 97 | 1019.4 |
| 20260903054240 | 76 | 243 | 0.0 | 0.0 | 0.00 | 0.00 | 0.00 | 96 | 1019.5 |
| 20260903053737 | 76 | 243 | 0.0 | 0.0 | 0.00 | 0.00 | 0.00 | 96 | 1019.2 |
| 20260903053236 | 76 | 243 | 0.0 | 0.0 | 0.00 | 0.00 | 0.00 | 96 | 1019.4 |
| 20260903052732 | 76 | 243 | 0.0 | 0.0 | 0.00 | 0.00 | 0.00 | 96 | 1019.5 |
| 20260903052228 | 76 | 243 | 0.0 | 0.0 | 0.00 | 0.00 | 0.00 | 96 | 1019.3 |
| 20260903051722 | 76 | 243 | 0.0 | 0.0 | 0.00 | 0.00 | 0.00 | 96 | 1019.5 |
| 20260903051218 | 76 | 243 | 0.0 | 0.0 | 0.00 | 0.00 | 0.00 | 96 | 1019.4 |
| 20260903050714 | 76 | 243 | 0.0 | 0.0 | 0.00 | 0.00 | 0.00 | 95 | 1019.4 |
| 20260903050212 | 77 | 243 | 0.0 | 0.0 | 0.00 | 0.00 | 0.00 | 95 | 1019.5 |
| 20260903045707 | 77 | 244 | 0.0 | 0.0 | 0.00 | 0.00 | 0.00 | 95 | 1019.3 |
| 20260903045204 | 77 | 245 | 0.0 | 0.0 | 0.00 | 0.00 | 0.00 | 95 | 1019.2 |
| 20260903044659 | 77 | 243 | 0.0 | 0.0 | 0.00 | 0.00 | 0.00 | 95 | 1019.3 |
| 20260903044154 | 77 | 244 | 0.0 | 0.0 | 0.00 | 0.00 | 0.00 | 95 | 1019.4 |
| 20260903043646 | 77 | 243 | 0.0 | 0.0 | 0.00 | 0.00 | 0.00 | 95 | 1019.2 |
| 20260903043145 | 77 | 243 | 0.0 | 0.0 | 0.00 | 0.00 | 0.00 | 94 | 1019.2 |
| 20260903042644 | 77 | 244 | 0.0 | 0.0 | 0.00 | 0.00 | 0.00 | 94 | 1019.2 |
| 20260903042139 | 77 | 242 | 0.0 | 0.0 | 0.00 | 0.00 | 0.00 | 94 | 1019.5 |
| 20260903041636 | 77 | 242 | 0.0 | 0.0 | 0.00 | 0.00 | 0.00 | 94 | 1019.4 |
| 20260903041131 | 77 | 241 | 0.0 | 0.0 | 0.00 | 0.00 | 0.00 | 93 | 1019.2 |
| 20260903040631 | 77 | 239 | 0.0 | 0.0 | 0.00 | 0.00 | 0.00 | 93 | 1019.4 |
| 20260903040127 | 77 | 239 | 0.0 | 0.0 | 0.00 | 0.00 | 0.00 | 93 | 1019.3 |
| 20260903035622 | 77 | 239 | 0.0 | 0.0 | 0.00 | 0.00 | 0.00 | 92 | 1019.2 |
| 20260903035118 | 77 | 239 | 0.0 | 0.0 | 0.00 | 0.00 | 0.00 | 92 | 1019.3 |
| 20260903034612 | 77 | 238 | 0.0 | 0.0 | 0.00 | 0.00 | 0.00 | 92 | 1019.2 |
| 20260903034108 | 77 | 243 | 0.0 | 0.0 | 0.00 | 0.00 | 0.00 | 91 | 1019.4 |
| 20260903033603 | 77 | 243 | 0.0 | 0.0 | 0.00 | 0.00 | 0.00 | 91 | 1019.3 |
| 20260903033058 | 77 | 245 | 0.0 | 0.0 | 0.00 | 0.00 | 0.00 | 91 | 1019.3 |
| 20260903032553 | 77 | 243 | 0.0 | 0.0 | 0.00 | 0.00 | 0.00 | 91 | 1019.4 |
| 20260903032048 | 77 | 243 | 0.0 | 0.0 | 0.00 | 0.00 | 0.00 | 91 | 1019.4 |
| 20260903031548 | 77 | 243 | 0.0 | 0.0 | 0.00 | 0.00 | 0.00 | 90 | 1019.3 |
| 20260903031043 | 77 | 243 | 0.0 | 0.0 | 0.00 | 0.00 | 0.00 | 90 | 1019.2 |
| 20260903030538 | 77 | 243 | 0.0 | 0.0 | 0.00 | 0.00 | 0.00 | 90 | 1019.5 |
| 20260903030035 | 78 | 242 | 0.0 | 0.0 | 0.00 | 0.00 | 0.00 | 90 | 1019.6 |
| 20260903025530 | 78 | 243 | 0.0 | 0.0 | 0.00 | 0.00 | 0.00 | 90 | 1019.5 |
| 20260903025026 | 78 | 244 | 0.0 | 0.0 | 0.00 | 0.00 | 0.00 | 89 | 1019.5 |
| 20260903024525 | 78 | 243 | 0.0 | 0.0 | 0.00 | 0.00 | 0.00 | 89 | 1019.3 |
| 20260903024020 | 78 | 243 | 0.0 | 0.0 | 0.00 | 0.00 | 0.00 | 89 | 1019.6 |
| 20260903023515 | 78 | 243 | 0.0 | 0.0 | 0.00 | 0.00 | 0.00 | 89 | 1019.6 |
| 20260903023011 | 78 | 243 | 0.0 | 0.0 | 0.00 | 0.00 | 0.00 | 88 | 1019.4 |
| 20260903022510 | 78 | 241 | 0.0 | 0.0 | 0.00 | 0.00 | 0.00 | 88 | 1019.3 |
| 20260903022008 | 78 | 243 | 0.0 | 0.0 | 0.00 | 0.00 | 0.00 | 88 | 1019.4 |
| 20260903021503 | 78 | 270 | 0.0 | 0.0 | 0.00 | 0.00 | 0.00 | 87 | 1019.2 |
| 20260903020958 | 78 | 263 | 0.0 | 0.0 | 0.00 | 0.00 | 0.00 | 87 | 1019.4 |
| 20260903020454 | 78 | 262 | 0.0 | 0.0 | 0.00 | 0.00 | 0.00 | 86 | 1019.1 |
| 20260903015954 | 78 | 261 | 0.0 | 0.0 | 0.00 | 0.00 | 0.00 | 87 | 1019.5 |
| 20260903015450 | 79 | 264 | 0.0 | 0.0 | 0.00 | 0.00 | 0.00 | 86 | 1019.4 |
| 20260903014944 | 79 | 263 | 0.0 | 0.0 | 0.00 | 0.00 | 0.00 | 86 | 1019.1 |
| 20260903014443 | 79 | 264 | 0.0 | 0.0 | 0.00 | 0.00 | 0.00 | 85 | 1019.2 |
| 20260903013938 | 79 | 260 | 0.0 | 0.0 | 0.00 | 0.00 | 0.00 | 85 | 1019.2 |
| 20260903013433 | 79 | 267 | 0.0 | 0.0 | 0.00 | 0.00 | 0.00 | 86 | 1019.0 |
| 20260903012932 | 79 | 262 | 0.0 | 0.0 | 0.00 | 0.00 | 0.00 | 86 | 1019.0 |
| 20260903012432 | 79 | 261 | 0.0 | 0.0 | 0.00 | 0.00 | 0.00 | 86 | 1019.1 |
| 20260903011930 | 79 | 227 | 0.0 | 0.0 | 0.00 | 0.00 | 0.00 | 85 | 1018.8 |
| 20260903011426 | 80 | 235 | 0.0 | 0.0 | 0.00 | 0.00 | 0.00 | 85 | 1018.7 |
| 20260903010920 | 80 | 248 | 0.0 | 0.0 | 0.00 | 0.00 | 0.00 | 84 | 1018.7 |
| 20260903010416 | 80 | 247 | 0.0 | 0.0 | 0.00 | 0.00 | 0.00 | 84 | 1018.5 |
| 20260903005914 | 80 | 250 | 0.0 | 0.0 | 0.00 | 0.00 | 0.00 | 84 | 1018.7 |
| 20260903005409 | 80 | 251 | 0.0 | 0.0 | 0.00 | 0.00 | 0.00 | 84 | 1018.6 |
| 20260903004906 | 80 | 255 | 0.0 | 0.0 | 0.00 | 0.00 | 0.00 | 84 | 1018.6 |
| 20260903004401 | 81 | 199 | 0.0 | 0.0 | 0.00 | 0.00 | 0.00 | 83 | 1018.6 |
| 20260903003856 | 81 | 198 | 0.0 | 0.0 | 0.00 | 0.00 | 0.00 | 82 | 1018.6 |
| 20260903003350 | 81 | 195 | 0.0 | 0.0 | 0.00 | 0.00 | 0.00 | 83 | 1018.7 |
| 20260903002850 | 81 | 194 | 0.0 | 0.0 | 0.00 | 0.00 | 0.00 | 84 | 1018.8 |
| 20260903002345 | 82 | 191 | 0.0 | 0.0 | 0.00 | 0.00 | 0.00 | 81 | 1018.5 |
| 20260903001840 | 82 | 191 | 0.0 | 0.0 | 0.00 | 0.00 | 0.00 | 81 | 1018.5 |
| 20260903001335 | 82 | 190 | 0.0 | 0.0 | 0.00 | 0.00 | 0.00 | 80 | 1018.3 |
| 20260903000835 | 83 | 191 | 0.0 | 0.0 | 0.00 | 0.00 | 0.00 | 79 | 1018.2 |
| 20260903000332 | 83 | 190 | 0.0 | 0.0 | 0.00 | 0.00 | 0.00 | 80 | 1018.4 |
| 20260902235828 | 84 | 191 | 0.0 | 0.0 | 0.00 | 0.00 | 0.00 | 79 | 1018.2 |
| 20260902235323 | 84 | 192 | 0.0 | 0.0 | 0.00 | 0.00 | 0.00 | 79 | 1018.4 |
| 20260902234817 | 85 | 191 | 0.0 | 0.0 | 0.00 | 0.00 | 0.00 | 79 | 1018.5 |
| 20260902234317 | 85 | 193 | 0.0 | 0.0 | 0.00 | 0.00 | 0.00 | 79 | 1018.3 |
| 20260902233816 | 86 | 189 | 0.0 | 0.0 | 0.00 | 0.00 | 0.00 | 77 | 1018.6 |
| 20260902233311 | 86 | 189 | 0.0 | 0.0 | 0.00 | 0.00 | 0.00 | 77 | 1018.6 |
| 20260902232809 | 87 | 186 | 0.0 | 0.0 | 0.00 | 0.00 | 0.00 | 77 | 1018.4 |
| 20260902232310 | 88 | 186 | 0.0 | 0.0 | 0.00 | 0.00 | 0.00 | 75 | 1018.5 |
| 20260902231809 | 88 | 186 | 0.0 | 0.0 | 0.00 | 0.00 | 0.00 | 75 | 1018.6 |
| 20260902231304 | 89 | 185 | 0.0 | 0.0 | 0.00 | 0.00 | 0.00 | 74 | 1018.6 |
| 20260902230759 | 89 | 185 | 0.0 | 0.0 | 0.00 | 0.00 | 0.00 | 74 | 1018.6 |
| 20260902230258 | 90 | 182 | 0.0 | 0.0 | 0.00 | 0.00 | 0.00 | 74 | 1018.7 |
| 20260902225753 | 91 | 180 | 0.0 | 0.0 | 0.00 | 0.00 | 0.00 | 74 | 1018.7 |
| 20260902225248 | 91 | 179 | 0.0 | 0.0 | 0.00 | 0.00 | 0.00 | 70 | 1018.6 |
| 20260902224746 | 91 | 179 | 0.0 | 0.0 | 0.00 | 0.00 | 0.00 | 69 | 1018.8 |
| 20260902224242 | 91 | 176 | 0.0 | 0.0 | 0.00 | 0.00 | 0.00 | 71 | 1018.8 |
| 20260902223738 | 91 | 176 | 0.0 | 0.0 | 0.00 | 0.00 | 0.00 | 68 | 1018.7 |
| 20260902223237 | 92 | 176 | 0.0 | 0.0 | 0.00 | 0.00 | 0.00 | 64 | 1018.7 |
| 20260902222736 | 92 | 176 | 0.0 | 0.0 | 0.00 | 0.00 | 0.00 | 62 | 1018.5 |
| 20260902222231 | 92 | 173 | 0.0 | 0.0 | 0.00 | 0.00 | 0.00 | 52 | 1018.8 |
| 20260902221725 | 93 | 173 | 0.0 | 0.0 | 0.00 | 0.00 | 0.00 | 55 | 1018.8 |
| 20260902221219 | 93 | 173 | 0.0 | 0.0 | 0.00 | 0.00 | 0.00 | 53 | 1018.6 |
| 20260902220714 | 93 | 172 | 0.0 | 0.0 | 0.00 | 0.00 | 0.00 | 49 | 1018.9 |
| 20260902220214 | 93 | 172 | 0.0 | 0.0 | 0.00 | 0.00 | 0.00 | 50 | 1018.9 |
| 20260902215710 | 93 | 172 | 0.0 | 0.0 | 0.00 | 0.00 | 0.00 | 48 | 1018.8 |
| 20260902215205 | 93 | 174 | 0.0 | 0.0 | 0.00 | 0.00 | 0.00 | 49 | 1018.7 |
| 20260902214701 | 93 | 174 | 0.0 | 0.0 | 0.00 | 0.00 | 0.00 | 50 | 1018.9 |
| 20260902214159 | 93 | 170 | 0.0 | 0.0 | 0.00 | 0.00 | 0.00 | 48 | 1019.0 |
| 20260902213655 | 94 | 125 | 0.0 | 0.0 | 0.00 | 0.00 | 0.00 | 48 | 1019.0 |
| 20260902213149 | 94 | 174 | 0.0 | 0.0 | 0.00 | 0.00 | 0.00 | 47 | 1018.8 |
| 20260902212644 | 94 | 176 | 0.0 | 0.0 | 0.00 | 0.00 | 0.00 | 48 | 1019.1 |
| 20260902212141 | 94 | 174 | 0.0 | 0.0 | 0.00 | 0.00 | 0.00 | 51 | 1019.1 |
| 20260902211636 | 94 | 120 | 0.0 | 0.0 | 0.00 | 0.00 | 0.00 | 47 | 1019.2 |
| 20260902211131 | 94 | 172 | 0.0 | 0.0 | 0.00 | 0.00 | 0.00 | 50 | 1019.1 |
| 20260902210631 | 94 | 172 | 0.0 | 0.0 | 0.00 | 0.00 | 0.00 | 48 | 1019.2 |
| 20260902210126 | 94 | 171 | 0.0 | 0.0 | 0.00 | 0.00 | 0.00 | 47 | 1019.1 |
| 20260902205624 | 95 | 175 | 0.0 | 0.0 | 0.00 | 0.00 | 0.00 | 47 | 1019.4 |
| 20260902205120 | 96 | 175 | 0.0 | 0.0 | 0.00 | 0.00 | 0.00 | 47 | 1019.2 |
| 20260902204620 | 96 | 176 | 0.0 | 0.0 | 0.00 | 0.00 | 0.00 | 50 | 1019.1 |
| 20260902204109 | 96 | 176 | 0.0 | 0.0 | 0.00 | 0.00 | 0.00 | 50 | 1019.1 |
| 20260902203605 | 95 | 175 | 0.0 | 0.0 | 0.00 | 0.00 | 0.00 | 52 | 1019.3 |
| 20260902203104 | 95 | 168 | 0.0 | 0.0 | 0.00 | 0.00 | 0.00 | 50 | 1019.3 |
| 20260902202559 | 94 | 168 | 0.0 | 0.0 | 0.00 | 0.00 | 0.00 | 50 | 1019.5 |
| 20260902202056 | 94 | 124 | 0.0 | 0.0 | 0.00 | 0.00 | 0.00 | 51 | 1019.5 |
| 20260902201551 | 94 | 128 | 0.0 | 0.0 | 0.00 | 0.00 | 0.00 | 55 | 1019.5 |
| 20260902201050 | 94 | 177 | 0.0 | 0.0 | 0.00 | 0.00 | 0.00 | 57 | 1019.7 |